Date String (YYYY-MM-DD hh:mm:ss) UTC,Instrument flags,Ambient pressure (hPa),Sample flow (lpm),Bypass flow (lpm),Sample temperature (°C),Ambient temperature (°C),ASC tube jacket temperature (°C),LED temperature (°C),Box temperature (°C),Sample RH (%),Mass concentration (μg/m³),Mass concentration (μg/m³)
DateTimeUTC,F1_M11,P_M11,Q1_M11,Q2_M11,T1_M11,T2_M11,T3_M11,T4_M11,T5_M11,U1_M11,X0_M11,X2_M11
2021-08-13 20:00:00,,0834.7,5.00,0.00,29.3,27.1,00.0,38.4,31.0,33.7,0032.95,0010.85
2021-08-13 20:01:00,,0834.7,4.99,0.00,29.4,27.5,00.0,38.4,31.1,33.5,0032.39,0010.84
2021-08-13 20:02:00,,0834.7,5.01,0.00,29.4,27.8,00.0,38.4,31.2,34.0,0032.01,0010.90
2021-08-13 20:03:00,,0834.7,4.98,0.00,29.5,28.1,00.0,38.4,31.3,34.6,0031.95,0010.83
2021-08-13 20:04:00,,0834.8,5.01,0.00,29.5,28.3,00.0,38.4,31.3,33.8,0032.01,0010.92
2021-08-13 20:05:00,,0834.7,5.00,0.00,29.6,28.2,00.0,38.5,31.3,33.8,0029.32,0010.97
2021-08-13 20:06:00,,0834.7,4.99,0.00,29.5,26.8,00.0,38.4,30.9,34.2,0029.16,0010.98
2021-08-13 20:07:00,,0834.7,5.01,0.00,29.3,25.9,00.0,38.4,30.6,33.9,0029.12,0010.93
2021-08-13 20:08:00,,0834.7,4.98,0.00,29.3,26.0,00.0,38.4,30.6,34.3,0030.34,0011.00
2021-08-13 20:09:00,,0834.7,5.02,0.00,29.2,26.4,00.0,38.4,30.7,34.5,0031.36,0010.98
2021-08-13 20:10:00,,0834.7,5.01,0.00,29.2,26.8,00.0,38.3,30.9,35.1,0031.92,0010.99
2021-08-13 20:11:00,,0834.7,4.99,0.00,29.4,27.3,00.0,38.3,31.1,34.6,0032.26,0011.00
2021-08-13 20:12:00,,0834.7,4.99,0.00,29.6,27.6,00.0,38.3,31.2,34.2,0031.96,0010.96
2021-08-13 20:13:00,,0834.7,5.01,0.00,29.7,27.9,00.0,38.3,31.3,33.8,0032.72,0011.00
2021-08-13 20:14:00,,0834.8,5.00,0.00,29.8,28.2,00.0,38.4,31.4,33.6,0033.37,0011.07
2021-08-13 20:15:00,,0834.7,5.00,0.00,29.8,28.4,00.0,38.4,31.4,33.8,0032.45,0011.00
2021-08-13 20:16:00,,0834.7,5.00,0.00,29.9,28.6,00.0,38.5,31.5,33.5,0032.68,0010.96
2021-08-13 20:17:00,,0834.7,5.01,0.00,29.9,28.0,00.0,38.5,31.3,32.4,0032.25,0010.93
2021-08-13 20:18:00,,0834.7,5.00,0.00,29.8,26.4,00.0,38.5,30.8,32.6,0032.00,0010.95
2021-08-13 20:19:00,,0834.7,5.00,0.00,29.6,25.9,00.0,38.5,30.7,33.3,0030.49,0010.86
2021-08-13 20:20:00,,0834.7,4.99,0.00,29.6,26.1,00.0,38.5,30.8,34.3,0029.83,0010.78
2021-08-13 20:21:00,,0834.7,5.01,0.00,29.5,26.6,00.0,38.5,30.9,33.6,0030.20,0010.75
2021-08-13 20:22:00,,0834.7,4.99,0.00,29.5,27.0,00.0,38.5,31.0,33.5,0029.99,0010.76
2021-08-13 20:23:00,,0834.7,5.00,0.00,29.5,27.4,00.0,38.5,31.1,33.3,0029.93,0010.75
2021-08-13 20:24:00,,0834.7,5.00,0.00,29.6,27.7,00.0,38.5,31.2,32.9,0029.78,0010.68
2021-08-13 20:25:00,,0834.7,5.01,0.00,29.6,28.0,00.0,38.5,31.3,32.9,0029.49,0010.58
2021-08-13 20:26:00,,0834.7,4.99,0.00,29.7,28.3,00.0,38.5,31.4,32.7,0031.26,0010.57
2021-08-13 20:27:00,,0834.7,5.00,0.00,29.7,28.5,00.0,38.6,31.4,32.6,0031.95,0010.47
2021-08-13 20:28:00,,0834.7,5.00,0.00,29.7,27.4,00.0,38.5,31.1,32.7,0031.01,0010.46
2021-08-13 20:29:00,,0834.7,5.00,0.00,29.6,26.1,00.0,38.5,30.7,33.6,0030.50,0010.46
2021-08-13 20:30:00,,0834.7,5.01,0.00,29.5,25.9,00.0,38.5,30.7,32.3,0029.80,0010.46
2021-08-13 20:31:00,,0834.7,5.01,0.00,29.4,26.3,00.0,38.5,30.8,32.4,0029.11,0010.45
2021-08-13 20:32:00,,0834.7,5.00,0.00,29.4,26.8,00.0,38.4,30.9,32.1,0029.19,0010.48
2021-08-13 20:33:00,,0834.7,4.99,0.00,29.4,27.2,00.0,38.4,31.0,32.4,0029.29,0010.46
2021-08-13 20:34:00,,0834.7,4.99,0.00,29.4,27.6,00.0,38.4,31.1,32.4,0029.77,0010.49
2021-08-13 20:35:00,,0834.7,5.00,0.00,29.5,27.9,00.0,38.4,31.2,32.3,0029.60,0010.48
2021-08-13 20:36:00,,0834.7,5.01,0.00,29.5,28.2,00.0,38.4,31.3,32.0,0029.83,0010.58
2021-08-13 20:37:00,,0834.7,5.00,0.00,29.6,28.1,00.0,38.5,31.2,32.1,0029.06,0010.55
2021-08-13 20:38:00,,0834.7,5.00,0.00,29.5,26.7,00.0,38.4,30.8,32.3,0027.94,0010.65
2021-08-13 20:39:00,,0834.7,5.01,0.00,29.3,26.0,00.0,38.4,30.6,32.4,0027.94,0010.67
2021-08-13 20:40:00,,0834.6,4.99,0.00,29.3,26.1,00.0,38.4,30.6,32.8,0027.98,0010.71
2021-08-13 20:41:00,,0834.7,5.01,0.00,29.2,26.5,00.0,38.4,30.7,32.9,0029.03,0010.73
2021-08-13 20:42:00,,0834.7,4.99,0.00,29.2,26.9,00.0,38.3,30.8,32.6,0029.44,0010.82
2021-08-13 20:43:00,,0834.7,5.00,0.00,29.3,27.3,00.0,38.3,30.9,32.3,0029.11,0010.88
2021-08-13 20:44:00,,0834.7,5.00,0.00,29.3,27.7,00.0,38.3,31.1,32.2,0029.93,0010.91
2021-08-13 20:45:00,,0834.7,5.00,0.00,29.4,28.0,00.0,38.3,31.2,32.4,0030.03,0010.95
2021-08-13 20:46:00,,0834.6,5.01,0.00,29.4,28.0,00.0,38.4,31.2,32.1,0029.63,0011.00
2021-08-13 20:47:00,,0834.6,5.00,0.00,29.3,26.6,00.0,38.3,30.7,32.0,0029.39,0010.91
2021-08-13 20:48:00,,0834.7,5.00,0.00,29.2,25.7,00.0,38.3,30.4,32.5,0028.23,0010.93
2021-08-13 20:49:00,,0834.7,5.00,0.00,29.1,25.8,00.0,38.3,30.5,33.1,0027.91,0010.96
2021-08-13 20:50:00,,0834.7,5.00,0.00,29.1,26.3,00.0,38.2,30.6,33.5,0027.86,0011.01
2021-08-13 20:51:00,,0834.7,5.01,0.00,29.1,26.7,00.0,38.2,30.7,33.1,0028.46,0011.10
2021-08-13 20:52:00,,0834.7,5.01,0.00,29.1,27.2,00.0,38.2,30.8,32.7,0027.88,0011.16
2021-08-13 20:53:00,,0834.7,5.00,0.00,29.2,27.5,00.0,38.2,31.0,32.2,0029.06,0011.18
2021-08-13 20:54:00,,0834.6,4.99,0.00,29.2,27.8,00.0,38.2,31.1,32.2,0028.46,0011.17
2021-08-13 20:55:00,,0834.7,5.01,0.00,29.3,28.1,00.0,38.2,31.2,32.3,0026.81,0011.26
2021-08-13 20:56:00,,0834.7,4.99,0.00,29.3,28.2,00.0,38.3,31.2,32.0,0026.20,0011.28
2021-08-13 20:57:00,,0834.7,5.00,0.00,29.3,26.9,00.0,38.2,30.8,32.0,0027.02,0011.32
2021-08-13 20:58:00,,0834.6,5.01,0.00,29.2,25.8,00.0,38.2,30.5,32.3,0026.72,0011.48
2021-08-13 20:59:00,,0834.6,5.00,0.00,29.1,25.9,00.0,38.2,30.4,32.9,0026.88,0011.59
